FW6938 Weather Reports


time (UTC)temp
C
wind
direction
speed
KPH
gust
KPH
rain 1hr
cm
rain 24hr
cm
rain mn
cm
humidity
%
barometer
mb
20260508203032 22 304 3.2 19.3 0.00 0.00 0.00 27 1018.4
20260508201530 22 37 3.2 12.9 0.00 0.00 0.00 24 1018.4
20260508200034 22 292 4.8 14.5 0.00 0.00 0.00 25 1018.5
20260508194552 22 32 3.2 17.7 0.00 0.00 0.00 28 1018.5
20260508193030 22 345 1.6 16.1 0.00 0.00 0.00 25 1018.4
20260508191532 22 17 8.0 24.1 0.00 0.00 0.00 25 1018.7
20260508190032 21 276 3.2 9.7 0.00 0.00 0.00 28 1019.0
20260508184534 21 294 1.6 6.4 0.00 0.00 0.00 32 1019.2
20260508183029 21 0 3.2 12.9 0.00 0.00 0.00 28 1019.2
20260508181545 21 257 1.6 12.9 0.00 0.00 0.00 32 1019.4
20260508180030 21 234 1.6 8.0 0.00 0.00 0.00 32 1019.3
20260508174537 20 0 4.8 12.9 0.00 0.00 0.00 28 1019.4
20260508173039 21 244 1.6 9.7 0.00 0.00 0.00 30 1019.4
20260508171534 21 261 6.4 14.5 0.00 0.00 0.00 37 1019.3
20260508170033 21 0 3.2 11.3 0.00 0.00 0.00 38 1019.2
20260508164530 20 0 0.0 11.3 0.00 0.00 0.00 38 1019.2
20260508163031 20 0 0.0 9.7 0.00 0.00 0.00 38 1019.2
20260508161533 20 0 1.6 8.0 0.00 0.00 0.00 40 1019.2
20260508160031 19 250 1.6 6.4 0.00 0.00 0.00 38 1019.0
20260508154532 18 53 1.6 6.4 0.00 0.00 0.00 40 1019.0
20260508153041 18 0 0.0 4.8 0.00 0.00 0.00 42 1019.0
20260508151530 17 0 0.0 3.2 0.00 0.00 0.00 42 1018.9
20260508150030 16 0 0.0 3.2 0.00 0.00 0.00 52 1018.8
20260508144532 14 0 0.0 1.6 0.00 0.00 0.00 56 1018.7
20260508143029 12 0 0.0 0.0 0.00 0.00 0.00 63 1018.9
20260508141529 9 0 0.0 0.0 0.00 0.00 0.00 73 1018.7
20260508140033 7 0 0.0 0.0 0.00 0.00 0.00 70 1018.5
20260508134530 7 0 0.0 0.0 0.00 0.00 0.00 68 1018.6
20260508133043 8 0 0.0 0.0 0.00 0.00 0.00 68 1018.5
20260508131532 8 0 0.0 0.0 0.00 0.00 0.00 66 1018.3
20260508130030 8 0 0.0 0.0 0.00 0.00 0.00 67 1018.1
20260508124528 8 0 0.0 0.0 0.00 0.00 0.00 64 1018.0
20260508123030 8 0 0.0 0.0 0.00 0.00 0.00 60 1017.7
20260508121532 8 0 0.0 0.0 0.00 0.00 0.00 61 1017.7
20260508120031 8 0 0.0 0.0 0.00 0.00 0.00 60 1017.6
20260508114531 8 0 0.0 0.0 0.00 0.00 0.00 60 1017.5
20260508113031 9 0 0.0 0.0 0.00 0.00 0.00 60 1017.3
20260508111528 9 0 0.0 0.0 0.00 0.00 0.00 60 1017.3
20260508110030 9 0 0.0 3.2 0.00 0.00 0.00 59 1017.0
20260508104529 9 0 0.0 3.2 0.00 0.00 0.00 57 1017.0
20260508103030 10 0 0.0 1.6 0.00 0.00 0.00 58 1017.0
20260508101532 10 0 0.0 1.6 0.00 0.00 0.00 55 1017.0
20260508100030 10 0 0.0 0.0 0.00 0.00 0.00 54 1017.0
20260508094529 10 0 0.0 0.0 0.00 0.00 0.00 54 1016.8
20260508093029 10 0 0.0 1.6 0.00 0.00 0.00 53 1016.7
20260508091529 10 321 0.0 0.0 0.00 0.00 0.00 58 1016.7
20260508090034 10 0 0.0 0.0 0.00 0.00 0.00 53 1016.5
20260508084530 10 0 0.0 1.6 0.00 0.00 0.00 56 1016.6
20260508083031 10 0 0.0 0.0 0.00 0.00 0.00 53 1016.8
20260508081534 10 0 0.0 3.2 0.00 0.00 0.00 54 1016.7
20260508080032 10 0 0.0 0.0 0.00 0.00 0.00 52 1016.8
20260508074530 11 0 0.0 1.6 0.00 0.00 0.00 53 1016.7
20260508073030 11 0 0.0 1.6 0.00 0.00 0.00 52 1016.8
20260508071532 11 0 0.0 0.0 0.00 0.00 0.00 52 1016.9
20260508070029 11 0 0.0 0.0 0.00 0.00 0.00 51 1016.8
20260508064531 11 0 0.0 0.0 0.00 0.00 0.00 52 1016.8
20260508063030 12 0 0.0 0.0 0.00 0.00 0.00 50 1016.7
20260508061531 12 0 0.0 0.0 0.00 0.00 0.00 50 1016.6
20260508060030 12 0 0.0 0.0 0.00 0.00 0.00 48 1016.4
20260508054538 12 0 0.0 0.0 0.00 0.00 0.00 48 1016.3
20260508053032 12 0 0.0 0.0 0.00 0.00 0.00 50 1016.2
20260508051532 12 0 0.0 0.0 0.00 0.00 0.00 47 1016.3
20260508050030 12 0 0.0 0.0 0.00 0.00 0.00 47 1016.3
20260508044534 12 0 0.0 0.0 0.00 0.00 0.00 50 1016.3
20260508043031 13 0 0.0 0.0 0.00 0.00 0.00 47 1016.4
20260508041528 13 0 0.0 3.2 0.00 0.00 0.00 46 1016.4
20260508040032 14 0 0.0 0.0 0.00 0.00 0.00 44 1016.3
20260508034538 15 0 0.0 4.8 0.00 0.00 0.00 41 1016.2
20260508033031 16 0 0.0 1.6 0.00 0.00 0.00 42 1016.1
20260508031530 17 0 0.0 4.8 0.00 0.00 0.00 37 1016.1
20260508030030 17 0 0.0 3.2 0.00 0.00 0.00 34 1015.8
20260508024535 18 0 0.0 0.0 0.00 0.00 0.00 34 1015.6
20260508023032 20 0 0.0 0.0 0.00 0.00 0.00 31 1015.7
20260508021530 21 0 0.0 0.0 0.00 0.00 0.00 27 1015.5
20260508020031 22 0 0.0 3.2 0.00 0.00 0.00 27 1015.5
20260508014531 22 355 0.0 3.2 0.00 0.00 0.00 26 1015.4
20260508013031 22 0 0.0 4.8 0.00 0.00 0.00 26 1015.4
20260508011539 21 26 1.6 4.8 0.00 0.00 0.00 27 1015.5
20260508010032 21 236 0.0 6.4 0.00 0.00 0.00 27 1015.7
20260508004531 21 0 0.0 4.8 0.00 0.00 0.00 29 1015.8
20260508003032 21 0 0.0 3.2 0.00 0.00 0.00 28 1015.8
20260508001530 21 0 0.0 6.4 0.00 0.00 0.00 30 1016.0
20260508000029 22 40 1.6 9.7 0.00 0.00 0.00 25 1016.1
20260507234529 22 0 3.2 11.3 0.00 0.00 0.00 25 1016.2
20260507233034 22 0 1.6 8.0 0.00 0.00 0.00 26 1016.3
20260507231539 22 264 1.6 12.9 0.00 0.00 0.00 24 1016.6
20260507230029 23 5 1.6 11.3 0.00 0.00 0.00 25 1016.9
20260507224531 23 0 1.6 12.9 0.00 0.00 0.00 23 1016.8
20260507223031 22 36 1.6 12.9 0.00 0.00 0.00 26 1017.0
20260507221531 23 219 4.8 16.1 0.00 0.00 0.00 27 1017.1
20260507220030 22 169 3.2 16.1 0.00 0.00 0.00 25 1017.1
20260507214532 22 265 1.6 8.0 0.00 0.00 0.00 26 1017.3
20260507213030 22 0 3.2 12.9 0.00 0.00 0.00 26 1017.7
20260507211530 22 252 4.8 14.5 0.00 0.00 0.00 28 1017.8
20260507210031 22 0 0.0 11.3 0.00 0.00 0.00 26 1018.0
20260507204527 21 275 0.0 11.3 0.00 0.00 0.00 26 1018.3